Home   Weather   Taloyoak   Past weeks

Flag for Canada Past Weather in Taloyoak, Nunavut, Canada — Yesterday and Last 2 Weeks

0 °F

Snow flurries. Fog.

Feels Like: -14 °F
Forecast: -6 / 1 °F
Wind: 7 mph from North

Location: Spence Bay Airport

Current Time: Oct 21, 2016 at 12:26:57 PM

Latest Report: Oct 21, 2016 at 12:00 PM

Visibility: 15 mi

Pressure: 30.20 "Hg

Humidity: 78%

Dew Point: -6 °F

Location of TaloyoakLocation

Past Weather in Taloyoak — Graph


Taloyoak Temperature Yesterday

Maximum temperature yesterday: 14 °F (at 11:00 AM)
Minimum temperature yesterday: 0 °F (at 7:00 PM)
Average temperature yesterday: 7 °F

High & Low Weather Summary for the Past Weeks

High30 °F (Oct 6, 10:00 AM)100% (Oct 7, 10:00 AM)30.29 "Hg (Oct 7, 10:00 AM)
Low-6 °F (Oct 21, 10:00 AM)68% (Oct 11, 1:00 PM)29.67 "Hg (Oct 19, 1:00 PM)
Average18 °F84%29.96 "Hg
* Reported Oct 6 10:00 AM — Oct 21 10:54 AM, Taloyoak, Weather by CustomWeather, © 2016

Note: Actual official high and low records may vary slightly from our data, if they occured in-between our weather recording intervals... More about our weather records


Taloyoak Weather History for the Previous 24 Hours

Scroll right to see more
Time TempWeatherWind HumidityBarometerVisibility
10:54 AM
Fri, Oct 21
0 °FSnow flurries. Fog.8 mph78%30.19 "Hg7 mi
10:00 AM-6 °FSnow flurries. Passing clouds.7 mph84%30.18 "Hg15 mi
9:00 AM-4 °FSnow flurries. Passing clouds.3 mph77%30.17 "Hg15 mi
8:00 AM-4 °FSnow flurries. Passing clouds.9 mph77%30.16 "Hg15 mi
7:00 AM-2 °FSnow flurries. Passing clouds.6 mph77%30.15 "Hg15 mi
6:00 AM-4 °FSnow flurries. Passing clouds.7 mph84%30.14 "Hg15 mi
5:00 AM-4 °FSnow flurries. Passing clouds.6 mph77%30.13 "Hg15 mi
4:00 AM-4 °FSnow flurries. Passing clouds.3 mph84%30.13 "Hg15 mi
3:00 AM0 °FLight snow. Passing clouds.5 mph84%30.11 "Hg15 mi
2:00 AM1 °FLight snow. Passing clouds.5 mph78%30.10 "Hg15 mi
1:00 AM1 °FLight snow. Fog.9 mph85%30.08 "Hg6 mi
12:00 AM3 °FLight snow. Passing clouds.6 mph85%30.08 "Hg10 mi
11:00 PM
Thu, Oct 20
5 °FLight snow. Ice fog.7 mph85%30.06 "Hg2 mi
10:00 PM3 °FSnow flurries. Fog.7 mph85%30.06 "Hg15 mi
9:00 PM1 °FSnow flurries. Passing clouds.15 mph85%30.05 "Hg15 mi
8:00 PM3 °FSnow flurries. Passing clouds.8 mph78%30.05 "Hg15 mi
7:00 PM0 °FPassing clouds.3 mph84%30.04 "Hg15 mi
6:00 PM3 °FPassing clouds.10 mph78%30.03 "Hg15 mi
5:00 PM1 °FPassing clouds.5 mph85%30.03 "Hg15 mi
4:00 PM3 °FPassing clouds.7 mph85%30.01 "Hg15 mi
3:00 PM5 °FPassing clouds.3 mph85%30.00 "Hg15 mi
2:00 PM7 °FPassing clouds.10 mph78%29.99 "Hg15 mi
1:00 PM9 °FPassing clouds.10 mph78%29.98 "Hg15 mi
12:00 PM10 °FScattered clouds.12 mph79%29.96 "Hg15 mi
Weather by CustomWeather, © 2016

See weather overviewHow to use our weather pages